Time,TemperatureF,DewpointF,PressureIn,WindDirection,WindDirectionDegrees,WindSpeedMPH,WindSpeedGustMPH,Humidity,HourlyPrecipIn,Conditions,Clouds,dailyrainin,SoftwareType,DateUTC
2013-02-02 00:11:00,39.9,30.0,30.29,ENE,76,0.0,-999.0,67,-99.99,,,0.00,weatherlink.com 1.10,2013-02-02 06:11:00,
2013-02-02 00:26:00,39.3,29.0,30.29,ENE,76,0.0,-999.0,68,-99.99,,,0.00,weatherlink.com 1.10,2013-02-02 06:26:00,
2013-02-02 00:41:00,38.9,30.0,30.29,ENE,76,0.0,-999.0,71,-99.99,,,0.00,weatherlink.com 1.10,2013-02-02 06:41:00,
2013-02-02 00:56:00,38.8,31.0,30.28,ENE,76,0.0,-999.0,74,-99.99,,,0.00,weatherlink.com 1.10,2013-02-02 06:56:00,
2013-02-02 01:11:00,38.5,31.0,30.29,ENE,76,0.0,-999.0,75,-99.99,,,0.00,weatherlink.com 1.10,2013-02-02 07:11:00,
2013-02-02 01:26:00,38.3,31.0,30.28,ENE,76,0.0,-999.0,76,-99.99,,,0.00,weatherlink.com 1.10,2013-02-02 07:26:00,
2013-02-02 01:41:00,38.2,32.0,30.28,ENE,76,0.0,-999.0,77,-99.99,,,0.00,weatherlink.com 1.10,2013-02-02 07:41:00,
2013-02-02 01:56:00,37.9,31.0,30.28,ENE,76,0.0,-999.0,77,-99.99,,,0.00,weatherlink.com 1.10,2013-02-02 07:56:00,
2013-02-02 02:11:00,37.6,31.0,30.28,ENE,76,0.0,-999.0,78,-99.99,,,0.00,weatherlink.com 1.10,2013-02-02 08:11:00,
2013-02-02 02:26:00,37.5,32.0,30.27,ENE,76,0.0,-999.0,79,-99.99,,,0.00,weatherlink.com 1.10,2013-02-02 08:26:00,
2013-02-02 02:41:00,37.3,32.0,30.27,ENE,76,0.0,-999.0,80,-99.99,,,0.00,weatherlink.com 1.10,2013-02-02 08:41:00,
2013-02-02 02:56:00,37.2,32.0,30.26,ENE,76,0.0,-999.0,80,-99.99,,,0.00,weatherlink.com 1.10,2013-02-02 08:56:00,
2013-02-02 03:11:00,36.9,31.0,30.26,ENE,76,0.0,-999.0,80,-99.99,,,0.00,weatherlink.com 1.10,2013-02-02 09:11:00,
2013-02-02 03:26:00,36.6,31.0,30.26,ENE,76,0.0,-999.0,81,-99.99,,,0.00,weatherlink.com 1.10,2013-02-02 09:26:00,
2013-02-02 03:41:00,36.5,31.0,30.26,ENE,76,0.0,-999.0,81,-99.99,,,0.00,weatherlink.com 1.10,2013-02-02 09:41:00,
2013-02-02 03:56:00,36.5,32.0,30.25,ENE,76,0.0,-999.0,82,-99.99,,,0.00,weatherlink.com 1.10,2013-02-02 09:56:00,
2013-02-02 04:11:00,36.2,31.0,30.25,ENE,76,0.0,-999.0,82,-99.99,,,0.00,weatherlink.com 1.10,2013-02-02 10:11:00,
2013-02-02 04:26:00,36.0,31.0,30.24,ENE,76,0.0,-999.0,83,-99.99,,,0.00,weatherlink.com 1.10,2013-02-02 10:26:00,
2013-02-02 04:41:00,36.0,31.0,30.23,ENE,76,0.0,-999.0,83,-99.99,,,0.00,weatherlink.com 1.10,2013-02-02 10:41:00,
2013-02-02 04:56:00,35.9,32.0,30.23,ENE,76,0.0,-999.0,84,-99.99,,,0.00,weatherlink.com 1.10,2013-02-02 10:56:00,
2013-02-02 05:11:00,36.3,32.0,30.23,ENE,76,0.0,-999.0,85,-99.99,,,0.00,weatherlink.com 1.10,2013-02-02 11:11:00,
2013-02-02 05:26:00,36.6,33.0,30.23,ENE,76,0.0,-999.0,86,-99.99,,,0.00,weatherlink.com 1.10,2013-02-02 11:26:00,
2013-02-02 05:41:00,36.6,33.0,30.23,ENE,76,0.0,-999.0,86,-99.99,,,0.00,weatherlink.com 1.10,2013-02-02 11:41:00,
2013-02-02 05:56:00,36.8,33.0,30.23,ENE,76,0.0,-999.0,86,-99.99,,,0.00,weatherlink.com 1.10,2013-02-02 11:56:00,
2013-02-02 06:11:00,37.2,34.0,30.23,ENE,76,0.0,-999.0,87,-99.99,,,0.00,weatherlink.com 1.10,2013-02-02 12:11:00,
2013-02-02 06:26:00,37.9,34.0,30.23,East,79,0.0,-999.0,87,-99.99,,,0.00,weatherlink.com 1.10,2013-02-02 12:26:00,
2013-02-02 06:41:00,38.3,35.0,30.23,East,85,0.0,-999.0,87,-99.99,,,0.00,weatherlink.com 1.10,2013-02-02 12:41:00,
2013-02-02 06:56:00,38.8,35.0,30.23,East,85,0.0,-999.0,87,-99.99,,,0.00,weatherlink.com 1.10,2013-02-02 12:56:00,
2013-02-02 07:11:00,39.1,36.0,30.23,ESE,109,2.0,-999.0,87,-99.99,,,0.00,weatherlink.com 1.10,2013-02-02 13:11:00,
2013-02-02 07:26:00,39.6,36.0,30.23,ESE,112,0.0,-999.0,87,-99.99,,,0.00,weatherlink.com 1.10,2013-02-02 13:26:00,
2013-02-02 07:41:00,40.8,37.0,30.23,ESE,114,2.0,-999.0,87,-99.99,,,0.00,weatherlink.com 1.10,2013-02-02 13:41:00,
2013-02-02 07:56:00,42.5,39.0,30.23,SSE,147,3.0,-999.0,87,-99.99,,,0.00,weatherlink.com 1.10,2013-02-02 13:56:00,
2013-02-02 08:11:00,44.5,41.0,30.23,SE,140,2.0,-999.0,86,-99.99,,,0.00,weatherlink.com 1.10,2013-02-02 14:11:00,
2013-02-02 08:26:00,46.1,42.0,30.24,SSE,150,4.0,-999.0,85,-99.99,,,0.00,weatherlink.com 1.10,2013-02-02 14:26:00,
2013-02-02 08:41:00,47.7,43.0,30.24,South,171,2.0,-999.0,84,-99.99,,,0.00,weatherlink.com 1.10,2013-02-02 14:41:00,
2013-02-02 08:56:00,49.9,45.0,30.24,SE,141,2.0,-999.0,83,-99.99,,,0.00,weatherlink.com 1.10,2013-02-02 14:56:00,
2013-02-02 09:11:00,53.3,44.0,30.24,SE,127,0.0,-999.0,72,-99.99,,,0.00,weatherlink.com 1.10,2013-02-02 15:11:00,
2013-02-02 09:26:00,56.5,43.0,30.24,ESE,119,4.0,-999.0,62,-99.99,,,0.00,weatherlink.com 1.10,2013-02-02 15:26:00,
2013-02-02 09:41:00,57.6,44.0,30.24,South,178,3.0,-999.0,61,-99.99,,,0.00,weatherlink.com 1.10,2013-02-02 15:41:00,
2013-02-02 09:56:00,58.9,43.0,30.24,SE,126,4.0,-999.0,57,-99.99,,,0.00,weatherlink.com 1.10,2013-02-02 15:56:00,
2013-02-02 10:11:00,60.5,45.0,30.24,South,176,3.0,-999.0,56,-99.99,,,0.00,weatherlink.com 1.10,2013-02-02 16:11:00,
2013-02-02 10:26:00,62.3,46.0,30.24,SSE,152,2.0,-999.0,56,-99.99,,,0.00,weatherlink.com 1.10,2013-02-02 16:26:00,
2013-02-02 10:41:00,63.5,47.0,30.24,WSW,257,1.0,-999.0,56,-99.99,,,0.00,weatherlink.com 1.10,2013-02-02 16:41:00,
2013-02-02 10:56:00,64.2,48.0,30.23,SSE,157,3.0,-999.0,56,-99.99,,,0.00,weatherlink.com 1.10,2013-02-02 16:56:00,
2013-02-02 11:11:00,65.8,49.0,30.23,West,277,2.0,-999.0,55,-99.99,,,0.00,weatherlink.com 1.10,2013-02-02 17:11:00,
2013-02-02 11:26:00,66.4,50.0,30.23,West,281,7.0,-999.0,55,-99.99,,,0.00,weatherlink.com 1.10,2013-02-02 17:26:00,
2013-02-02 11:41:00,67.4,51.0,30.22,WSW,257,7.0,-999.0,56,-99.99,,,0.00,weatherlink.com 1.10,2013-02-02 17:41:00,
2013-02-02 11:56:00,68.3,50.0,30.21,South,174,4.0,-999.0,52,-99.99,,,0.00,weatherlink.com 1.10,2013-02-02 17:56:00,
2013-02-02 12:11:00,69.4,51.0,30.20,West,270,2.0,-999.0,52,-99.99,,,0.00,weatherlink.com 1.10,2013-02-02 18:11:00,
2013-02-02 12:26:00,69.4,50.0,30.19,SSE,164,1.0,-999.0,51,-99.99,,,0.00,weatherlink.com 1.10,2013-02-02 18:26:00,
2013-02-02 12:41:00,69.8,50.0,30.18,WSW,239,2.0,-999.0,50,-99.99,,,0.00,weatherlink.com 1.10,2013-02-02 18:41:00,
2013-02-02 12:56:00,69.9,49.0,30.18,West,263,2.0,-999.0,47,-99.99,,,0.00,weatherlink.com 1.10,2013-02-02 18:56:00,
2013-02-02 13:11:00,70.1,49.0,30.17,West,272,2.0,-999.0,48,-99.99,,,0.00,weatherlink.com 1.10,2013-02-02 19:11:00,
2013-02-02 13:26:00,70.8,49.0,30.16,West,280,2.0,-999.0,47,-99.99,,,0.00,weatherlink.com 1.10,2013-02-02 19:26:00,
2013-02-02 13:41:00,70.9,49.0,30.15,WNW,285,1.0,-999.0,46,-99.99,,,0.00,weatherlink.com 1.10,2013-02-02 19:41:00,
2013-02-02 13:56:00,71.1,49.0,30.14,SSW,203,3.0,-999.0,46,-99.99,,,0.00,weatherlink.com 1.10,2013-02-02 19:56:00,
2013-02-02 14:11:00,72.1,49.0,30.14,SW,216,8.0,-999.0,44,-99.99,,,0.00,weatherlink.com 1.10,2013-02-02 20:11:00,
2013-02-02 14:26:00,71.8,50.0,30.14,South,184,2.0,-999.0,47,-99.99,,,0.00,weatherlink.com 1.10,2013-02-02 20:26:00,
2013-02-02 14:41:00,72.1,50.0,30.13,WSW,248,3.0,-999.0,45,-99.99,,,0.00,weatherlink.com 1.10,2013-02-02 20:41:00,
2013-02-02 14:56:00,72.0,49.0,30.13,West,260,2.0,-999.0,45,-99.99,,,0.00,weatherlink.com 1.10,2013-02-02 20:56:00,
2013-02-02 15:11:00,72.0,48.0,30.12,WSW,258,3.0,-999.0,43,-99.99,,,0.00,weatherlink.com 1.10,2013-02-02 21:11:00,
2013-02-02 15:26:00,72.1,49.0,30.12,WNW,289,2.0,-999.0,44,-99.99,,,0.00,weatherlink.com 1.10,2013-02-02 21:26:00,
2013-02-02 15:41:00,72.3,48.0,30.12,West,270,0.0,-999.0,43,-99.99,,,0.00,weatherlink.com 1.10,2013-02-02 21:41:00,
2013-02-02 15:56:00,71.8,49.0,30.12,WSW,256,2.0,-999.0,45,-99.99,,,0.00,weatherlink.com 1.10,2013-02-02 21:56:00,
2013-02-02 16:11:00,71.5,48.0,30.11,West,274,2.0,-999.0,44,-99.99,,,0.00,weatherlink.com 1.10,2013-02-02 22:11:00,
2013-02-02 16:26:00,70.8,48.0,30.12,WNW,289,2.0,-999.0,45,-99.99,,,0.00,weatherlink.com 1.10,2013-02-02 22:26:00,
2013-02-02 16:41:00,70.4,49.0,30.12,West,261,3.0,-999.0,46,-99.99,,,0.00,weatherlink.com 1.10,2013-02-02 22:41:00,
2013-02-02 16:56:00,69.8,49.0,30.12,WSW,257,0.0,-999.0,47,-99.99,,,0.00,weatherlink.com 1.10,2013-02-02 22:56:00,
2013-02-02 17:11:00,69.4,49.0,30.12,WSW,257,0.0,-999.0,48,-99.99,,,0.00,weatherlink.com 1.10,2013-02-02 23:11:00,
2013-02-02 17:26:00,68.9,49.0,30.12,WSW,257,0.0,-999.0,49,-99.99,,,0.00,weatherlink.com 1.10,2013-02-02 23:26:00,
2013-02-02 17:41:00,68.4,49.0,30.12,WSW,257,0.0,-999.0,50,-99.99,,,0.00,weatherlink.com 1.10,2013-02-02 23:41:00,
2013-02-02 17:56:00,67.6,49.0,30.13,WSW,257,0.0,-999.0,51,-99.99,,,0.00,weatherlink.com 1.10,2013-02-02 23:56:00,
2013-02-02 18:11:00,66.1,48.0,30.13,WSW,257,0.0,-999.0,52,-99.99,,,0.00,weatherlink.com 1.10,2013-02-03 00:11:00,
2013-02-02 18:26:00,64.5,47.0,30.13,WSW,257,0.0,-999.0,54,-99.99,,,0.00,weatherlink.com 1.10,2013-02-03 00:26:00,
2013-02-02 18:41:00,63.2,47.0,30.14,WSW,257,0.0,-999.0,56,-99.99,,,0.00,weatherlink.com 1.10,2013-02-03 00:41:00,
2013-02-02 18:56:00,61.8,46.0,30.14,WSW,257,0.0,-999.0,57,-99.99,,,0.00,weatherlink.com 1.10,2013-02-03 00:56:00,
2013-02-02 19:11:00,60.4,46.0,30.15,WSW,257,0.0,-999.0,59,-99.99,,,0.00,weatherlink.com 1.10,2013-02-03 01:11:00,
2013-02-02 19:26:00,59.5,47.0,30.15,WSW,257,0.0,-999.0,63,-99.99,,,0.00,weatherlink.com 1.10,2013-02-03 01:26:00,
2013-02-02 19:41:00,58.4,46.0,30.15,WSW,257,0.0,-999.0,64,-99.99,,,0.00,weatherlink.com 1.10,2013-02-03 01:41:00,
2013-02-02 19:56:00,57.6,46.0,30.15,WSW,257,0.0,-999.0,66,-99.99,,,0.00,weatherlink.com 1.10,2013-02-03 01:56:00,
2013-02-02 20:11:00,56.7,46.0,30.16,WSW,257,0.0,-999.0,68,-99.99,,,0.00,weatherlink.com 1.10,2013-02-03 02:11:00,
2013-02-02 20:26:00,56.2,47.0,30.16,WSW,257,0.0,-999.0,71,-99.99,,,0.00,weatherlink.com 1.10,2013-02-03 02:26:00,
2013-02-02 20:41:00,55.6,47.0,30.17,WSW,257,0.0,-999.0,74,-99.99,,,0.00,weatherlink.com 1.10,2013-02-03 02:41:00,
2013-02-02 20:56:00,55.1,47.0,30.17,WSW,257,0.0,-999.0,74,-99.99,,,0.00,weatherlink.com 1.10,2013-02-03 02:56:00,
2013-02-02 21:11:00,54.5,46.0,30.17,WSW,257,0.0,-999.0,74,-99.99,,,0.00,weatherlink.com 1.10,2013-02-03 03:11:00,
2013-02-02 21:26:00,54.1,47.0,30.17,WSW,257,0.0,-999.0,76,-99.99,,,0.00,weatherlink.com 1.10,2013-02-03 03:26:00,
2013-02-02 21:41:00,53.6,47.0,30.18,WSW,257,0.0,-999.0,78,-99.99,,,0.00,weatherlink.com 1.10,2013-02-03 03:41:00,
2013-02-02 21:57:00,53.6,48.0,30.18,NW,315,0.0,-999.0,80,-99.99,,,0.00,weatherlink.com 1.10,2013-02-03 03:57:00,
2013-02-02 22:11:00,53.9,48.0,30.19,NW,315,0.0,-999.0,81,-99.99,,,0.00,weatherlink.com 1.10,2013-02-03 04:11:00,
2013-02-02 22:27:00,55.0,50.0,30.20,NNW,339,0.0,-999.0,82,-99.99,,,0.00,weatherlink.com 1.10,2013-02-03 04:27:00,
2013-02-02 22:41:00,55.6,50.0,30.21,NNW,339,0.0,-999.0,81,-99.99,,,0.00,weatherlink.com 1.10,2013-02-03 04:41:00,
2013-02-02 22:56:00,55.7,50.0,30.21,NNW,339,0.0,-999.0,80,-99.99,,,0.00,weatherlink.com 1.10,2013-02-03 04:56:00,
2013-02-02 23:11:00,55.7,49.0,30.21,NNW,339,0.0,-999.0,79,-99.99,,,0.00,weatherlink.com 1.10,2013-02-03 05:11:00,
2013-02-02 23:26:00,55.3,49.0,30.21,NNW,339,0.0,-999.0,78,-99.99,,,0.00,weatherlink.com 1.10,2013-02-03 05:26:00,
2013-02-02 23:41:00,54.7,48.0,30.21,NNW,339,0.0,-999.0,79,-99.99,,,0.00,weatherlink.com 1.10,2013-02-03 05:41:00,
2013-02-02 23:56:00,53.9,47.0,30.22,NNW,339,0.0,-999.0,78,-99.99,,,0.00,weatherlink.com 1.10,2013-02-03 05:56:00,